Lafayette, IN

12:27 AM EDT on May 22, 2018 (GMT -0400)
Purdue Univ

Weather History for KLAF - June, 2014

Change the Weather History Date:

Sunday, June 15, 2014

  Actual Average Record
Temperature  
Mean Temperature 68 °F 72 °F  
Max Temperature 84 °F 83 °F 96 °F (1967)
Min Temperature 52 °F 61 °F 47 °F (1969)
Degree Days  
Heating Degree Days 0 1  
Month to date heating degree days 6 19  
Since 1 June heating degree days 6 19  
Since 1 July heating degree days 6552 5669  
Cooling Degree Days 3 7  
Month to date cooling degree days 53 85  
Year to date cooling degree days 150 162  
Since 1 June cooling degree days 53 85  
Growing Degree Days 18 (Base 50)    
Moisture  
Dew Point 58 °F    
Average Humidity 64    
Maximum Humidity 83    
Minimum Humidity 44    
Precipitation  
Precipitation 0.00 in 0.13 in 1.84 in (1982)
Month to date precipitation 3.18 2.11  
Year to date precipitation 16.01 16.13  
Sea Level Pressure  
Sea Level Pressure 29.98 in    
Wind  
Wind Speed 8 mph (SSE)    
Max Wind Speed 20 mph    
Max Gust Speed 29 mph    
Visibility 10 miles    
Events      
T = Trace of Precipitation, MM = Missing Value Source: NWS Daily Summary

Daily Weather History Graph

Daily Weather History Graph

Search for Another Location

Airport or City:

Astronomy

Jun. 15, 2014 Rise Set
Actual Time 6:16 AM EDT 9:19 PM EDT
Civil Twilight 5:43 AM EDT 9:52 PM EDT
Nautical Twilight 5:01 AM EDT 10:35 PM EDT
Astronomical Twilight 4:12 AM EDT 11:24 PM EDT
Moon 11:28 PM EDT (6/15) 9:10 AM EDT (6/15)
Length of Visible Light 16h 08m
Length of Day
15h 02m
Waning Gibbous, 91% of the Moon is Illuminated
Jun 15
Waning Gibbous
Jun 19
Last Quarter
Jun 27
New
Jul 5
First Quarter
Jul 12
Full

Hourly Weather History & Observations

Time (EDT) Temp. Heat Index Dew Point Humidity Pressure Visibility Wind Dir Wind Speed Gust Speed Precip Events Conditions
12:54 AM 57.9 °F - 48.9 °F 72% 30.03 in 10.0 mi East 3.5 mph - N/A   Clear
1:54 AM 57.9 °F - 48.9 °F 72% 30.03 in 10.0 mi ENE 3.5 mph - N/A   Clear
2:54 AM 55.9 °F - 48.9 °F 77% 30.02 in 10.0 mi East 5.8 mph - N/A   Clear
3:54 AM 55.0 °F - 48.9 °F 80% 30.02 in 10.0 mi East 5.8 mph - N/A   Clear
4:54 AM 53.1 °F - 48.0 °F 83% 30.00 in 10.0 mi East 5.8 mph - N/A   Clear
5:54 AM 54.0 °F - 48.9 °F 83% 30.01 in 10.0 mi East 5.8 mph - N/A   Clear
7:54 AM 60.1 °F - 52.0 °F 75% 30.03 in 10.0 mi SE 5.8 mph - N/A   Clear
8:54 AM 64.9 °F - 53.1 °F 65% 30.04 in 10.0 mi SSE 4.6 mph - N/A   Clear
9:54 AM 70.0 °F - 55.0 °F 59% 30.02 in 10.0 mi South 9.2 mph - N/A   Clear
10:54 AM 75.0 °F - 55.0 °F 50% 30.01 in 10.0 mi South 8.1 mph 18.4 mph N/A   Clear
11:54 AM 78.1 °F - 55.9 °F 46% 30.01 in 10.0 mi South 13.8 mph 19.6 mph N/A   Clear
12:54 PM 81.0 °F 81.1 °F 57.9 °F 45% 29.98 in 10.0 mi South 13.8 mph 25.3 mph N/A   Clear
1:54 PM 81.0 °F 81.3 °F 59.0 °F 47% 29.97 in 10.0 mi SSW 12.7 mph 23.0 mph N/A   Scattered Clouds
2:54 PM 84.0 °F 84.4 °F 61.0 °F 46% 29.92 in 10.0 mi South 12.7 mph 24.2 mph N/A   Partly Cloudy
3:54 PM 82.9 °F 83.7 °F 62.1 °F 49% 29.89 in 10.0 mi South 11.5 mph 28.8 mph N/A   Partly Cloudy
4:54 PM 81.0 °F 81.9 °F 62.1 °F 52% 29.92 in 10.0 mi South 9.2 mph 23.0 mph N/A   Clear
5:54 PM 81.0 °F 82.2 °F 63.0 °F 54% 29.94 in 10.0 mi SSW 11.5 mph 19.6 mph N/A   Mostly Cloudy
6:54 PM 81.0 °F 82.7 °F 64.9 °F 58% 29.93 in 10.0 mi SSW 8.1 mph - N/A   Mostly Cloudy
7:54 PM 81.0 °F 83.0 °F 66.0 °F 60% 29.94 in 10.0 mi SSW 10.4 mph 18.4 mph N/A   Clear
8:54 PM 80.1 °F 82.1 °F 66.0 °F 62% 29.94 in 10.0 mi SSW 9.2 mph 19.6 mph N/A   Clear
9:54 PM 78.1 °F - 66.9 °F 68% 29.95 in 10.0 mi SSW 8.1 mph - N/A   Mostly Cloudy
10:54 PM 77.0 °F - 66.0 °F 69% 29.97 in 10.0 mi SW 8.1 mph - N/A   Scattered Clouds
11:54 PM 75.9 °F - 66.9 °F 74% 29.98 in 10.0 mi Variable 5.8 mph - N/A   Overcast